Weather observations for the past three days for
Jackson, Hawkins Field Airport
Imperial (Metric)
Date Time (cdt) Wind (mph) Vis. (mi.) Weather Sky Cond. Temperature (ºF) Relative Humidity Wind Chill (°F) Heat Index (°F) Pressure Precipitation (in)
Air Dwpt 6 hour altimeter (in) sea level (mb) 1 hr 3 hr 6 hr
Max. Min.
14 07:53 Calm 10.00 Fair CLR 75 68 79% 76 30 1015.1
14 06:53 NW 3 10.00 Fair CLR 69.1 64.9 71.1 66.9 87% 30 1014.9
14 05:53 Calm 10.00 Fair CLR 66.9 64 91% 29.99 1014.7
14 04:53 Calm 10.00 Fair CLR 66.9 64 91% 29.97 1014.1
14 03:53 NW 3 10.00 Fair CLR 68 64 87% 29.96 1013.7
14 02:53 Calm 10.00 Fair CLR 69.1 64 84% 29.95 1013.3
14 01:53 Calm 10.00 Fair CLR 69.1 63 81% 29.94 1012.9
14 00:53 Calm 10.00 Fair CLR 69.1 64 87.1 69.1 84% 29.94 1013.0
13 23:53 Calm 10.00 Fair CLR 72 64 76% 29.94 1012.8
13 22:53 Calm 10.00 Fair CLR 73 64 74% 29.94 1012.9
13 21:53 Calm 10.00 Fair CLR 73.9 64 71% 29.94 1012.9
13 20:53 Calm 10.00 Fair CLR 78.1 63 60% 80 29.94 1013.0
13 19:53 Calm 10.00 Fair CLR 84 62.1 48% 85 29.94 1013.0
13 18:53 Vrbl 5 10.00 Fair CLR 87.1 61 91 86 42% 87 29.94 1012.9
13 17:53 N 7 10.00 Fair CLR 89.1 61 39% 89 29.93 1012.7
13 16:53 Vrbl 3 10.00 Fair CLR 89.1 61 39% 89 29.93 1012.7
13 15:53 SE 3 10.00 Fair CLR 89.1 61 39% 89 29.94 1013.1
13 14:53 NE 6 10.00 Fair CLR 89.1 62.1 41% 89 29.95 1013.4
13 13:53 NW 8 10.00 Fair CLR 88 62.1 42% 88 29.97 1013.9
13 12:53 NW 3 10.00 Fair CLR 87.1 62.1 87.1 66 43% 88 29.98 1014.3
13 11:53 SE 5 10.00 Fair CLR 84.9 62.1 46% 85 29.99 1014.5
13 10:53 E 5 10.00 Fair CLR 82.9 61 48% 83 29.99 1014.7
13 09:53 E 5 10.00 Fair CLR 82 62.1 51% 83 29.99 1014.8
13 08:53 NE 6 10.00 Fair CLR 79 63 58% 81 29.99 1014.8
13 07:53 E 6 10.00 Fair CLR 73.9 63 69% 29.98 1014.2
13 06:53 Calm 10.00 Fair CLR 64.9 62.1 68 63 90% 29.96 1013.8
13 05:53 Calm 10.00 Fair CLR 64 60.1 87% 29.95 1013.4
13 04:53 Calm 10.00 Fair CLR 64 60.1 87% 29.94 1012.9
13 03:53 Calm 10.00 Fair CLR 64.9 60.1 84% 29.93 1012.7
13 02:53 Calm 10.00 Fair CLR 66 61 84% 29.93 1012.6
13 01:53 Calm 10.00 Fair CLR 66.9 62.1 84% 29.93 1012.6
13 00:53 Calm 10.00 Fair CLR 68 63 84 66.9 84% 29.93 1012.8
12 23:53 Calm 10.00 Fair CLR 70 63 79% 29.95 1013.5
12 22:53 Calm 10.00 Fair CLR 71.1 62.1 73% 29.96 1013.8
12 21:53 Calm 10.00 Fair CLR 73 61 66% 29.96 1013.5
12 20:53 NW 5 10.00 Fair CLR 75.9 60.1 58% 78 29.95 1013.3
12 19:53 N 3 10.00 Fair CLR 81 60.1 49% 82 29.94 1013.0
12 18:53 N 5 10.00 Fair CLR 84 57 87.1 81 40% 83 29.95 1013.2
12 17:53 N 7 10.00 Fair CLR 84.9 57 39% 84 29.94 1013.0
12 16:53 NW 6 10.00 Fair CLR 84.9 57.9 40% 84 29.94 1013.2
12 15:53 Calm 10.00 Fair CLR 86 60.1 42% 86 29.95 1013.3
12 14:53 Vrbl 5 10.00 Fair CLR 84.9 59 42% 85 29.96 1013.9
12 13:53 Calm 10.00 Fair CLR 84 57.9 41% 83 29.98 1014.4
12 12:53 Vrbl 5 10.00 Fair CLR 82 55 82.9 68 40% 81 30 1015.0
12 11:53 Calm 10.00 Fair CLR 81 57 44% 81 30.01 1015.3
12 10:53 N 7 10.00 Fair CLR 81 55.9 42% 81 30.01 1015.3
12 09:53 Calm 10.00 Fair CLR 80.1 59 49% 81 30.01 1015.2
12 08:53 E 3 10.00 Fair CLR 75.9 59 56% 78 30.01 1015.2
12 06:53 NE 3 10.00 Fair CLR 66.9 59 70 64.9 76% 29.99 1014.6
12 05:53 Calm 10.00 Fair CLR 66 57.9 75% 29.97 1014.1
12 04:53 Calm 10.00 Fair CLR 66.9 60.1 79% 29.96 1013.6
12 03:53 Calm 10.00 Fair CLR 66.9 62.1 84% 29.95 1013.4
12 02:53 Calm 10.00 Fair CLR 66 61 84% 29.95 1013.3
12 01:53 Calm 10.00 Fair CLR 68 61 78% 29.95 1013.4
12 00:53 Calm 10.00 Fair CLR 70 61 82.9 69.1 73% 29.96 1013.6
11 23:53 NE 3 10.00 Fair CLR 73 61 66% 29.96 1013.6
11 22:53 Calm 10.00 Fair CLR 73.9 62.1 67% 29.96 1013.6
11 21:53 N 3 10.00 Fair CLR 75 62.1 64% 77 29.94 1012.8
11 20:53 N 5 10.00 Fair CLR 77 61 58% 79 29.93 1012.5
11 19:53 N 5 10.00 Fair CLR 80.1 62.1 54% 81 29.92 1012.2
11 18:53 Vrbl 5 10.00 Fair CLR 82.9 60.1 88 82.9 46% 83 29.9 1011.7
11 17:53 N 8 10.00 Fair CLR 86 59 40% 85 29.89 1011.4
11 16:53 N 7 10.00 Fair CLR 86 60.1 42% 86 29.9 1011.7
11 15:53 Vrbl 7 10.00 Fair CLR 84.9 57.9 40% 84 29.91 1012.0
11 14:53 Vrbl 7 10.00 Fair CLR 84 57.9 41% 83 29.93 1012.6
11 13:53 N 9 10.00 Fair CLR 86 57 37% 85 29.94 1012.8
11 12:53 Vrbl 6 10.00 Fair CLR 86 59 87.1 70 40% 85 29.94 1013.1
11 11:53 Vrbl 6 10.00 Fair CLR 84 57.9 41% 83 29.95 1013.4
11 10:53 NE 8 10.00 Fair CLR 82 59 46% 82 29.96 1013.6
11 09:53 NE 8 10.00 Fair CLR 80.1 60.1 51% 81 29.96 1013.6
11 08:53 Vrbl 7 10.00 Fair CLR 77 60.1 56% 79 29.96 1013.5
Date Time (cdt) Wind (mph) Vis. (mi.) Weather Sky Cond. Air Dwpt Max. Min. Relative Humidity Wind Chill (°F) Heat Index (°F) altimeter (in) sea level (mb) 1 hr 3 hr 6 hr
6 hour
Temperature (ºF) Pressure Precipitation (in)